Location: Clanezzo
(45.7500°N, 9.6000°E)
Time: 00:02:42
(UTC+00:00)

USA 308 - Pass Details

Date: 27 September 2021
Orbit: 566 x 573 km, 54.0° (Epoch: 23 September)

Event Time Altitude Azimuth Distance (km) Brightness Sun altitude
Rises 17:45:34 0° 297° (WNW) 2,769 7.9 -7.2°
Reaches altitude 10° 17:48:03 10° 309° (NW) 1,873 6.5 -7.6°
Maximum altitude 17:51:48 29° 11° (N) 1,052 4.2 -8.2°
Drops below altitude 10° 17:55:33 10° 73° (ENE) 1,874 5.0 -8.9°
Enters shadow 17:55:39 10° 73° (ENE) 1,903 5.0 -8.9°
